Hourly Data Report for February 04, 2017

All times are specified in Local Standard Time (LST). Add 1 hour to adjust for Daylight Saving Time where and when it is observed.

COLVILLE LAKE
NORTHWEST TERRITORIES

67°01'17.040" N
126°07'23.070" W
271.00 m
2200824
71055
WFX

Download Data

Hourly Data (February 2017)
Hourly Data Report for February 4, 2017
Temp Definition
°C
Dew Point Temp Definition
°C
Rel Hum Definition
%
Wind Dir Definition
10's deg

Wind Spd Definition
km/h
Visibility Definition
km
Stn Press Definition
kPa
Hmdx Definition


Wind Chill Definition


Weather Definition


TIME
00:00 -10.3 -11.5 91 31 5   98.76   -13 LegendNANA
01:00 -9.6 -11.2 88 32 15   98.75   -16 LegendNANA
02:00 -10.4 -12.3 86 33 22   98.78   -19 LegendNANA
03:00 -10.7 -12.6 86 33 21   98.80   -19 LegendNANA
04:00 -11.6 -13.8 84 34 18   98.90   -19 LegendNANA
05:00 -11.7 -13.9 84 35 13   98.94   -18 LegendNANA
06:00 -11.7 -13.9 83 36 11   98.95   -18 LegendNANA
07:00 -12.1 -14.1 85 35 10   98.97   -18 LegendNANA
08:00 -12.0 -13.8 87 1 4   99.03   -15 LegendNANA
09:00 -12.4 -13.9 88 35 8   99.04   -17 LegendNANA
10:00 -14.1 -15.8 87 7 7   99.10   -19 LegendNANA
11:00 -14.3 -16.1 86 7 4   99.13   -17 LegendNANA
12:00 -13.9 -15.7 86 6 1   99.18   -15 LegendNANA
13:00 -13.7 -16.0 83 21 3   99.18   -16 LegendNANA
14:00 -13.7 -15.6 85 22 7   99.17   -18 LegendNANA
15:00 -13.3 -15.3 85 22 7   99.15   -18 LegendNANA
16:00 -12.6 -14.2 87 22 9   99.13   -18 LegendNANA
17:00 -11.8 -13.3 89 24 10   99.10   -17 LegendNANA
18:00 -11.6 -13.1 88 25 7   99.06   -16 LegendNANA
19:00 -11.4 -13.3 86 27 7   99.04   -16 LegendNANA
20:00 -11.1 -12.9 87 29 7   99.00   -15 LegendNANA
21:00 -11.3 -12.8 88 29 5   98.98   -14 LegendNANA
22:00 -11.0 -12.5 89 31 7   98.93   -15 LegendNANA
23:00 -11.3 -12.3 92 31 7   98.89   -16 LegendNANA

Notes on Data Quality.

Legend

  • E = Estimated
  • M = Missing
  • NA = Not Available
  • ‡ = Partner data that is not subject to review by the National Climate Archives
Date modified: